Weather History for KCEC - July, 2013

Change the Weather History Date:

Tuesday, July 23, 2013

  Actual Average Record
Temperature  
Mean Temperature 51 °F 56 °F  
Max Temperature 55 °F 61 °F 77 °F (1979)
Min Temperature 47 °F 52 °F 42 °F (1922)
Degree Days  
Heating Degree Days 14 9  
Month to date heating degree days 207  
Since 1 June heating degree days 516  
Since 1 July heating degree days 207  
Cooling Degree Days 0 0  
Month to date cooling degree days 0  
Year to date cooling degree days 0  
Since 1 June cooling degree days 0  
Moisture  
Dew Point 50 °F    
Average Humidity 92    
Maximum Humidity 100    
Minimum Humidity 83    
Precipitation  
Precipitation 0.00 in 0.01 in 0.42 in (1993)
Month to date precipitation 0.00 0.36  
Year to date precipitation 19.93 37.29  
Since 1 July precipitation 0.00 0.36  
Snow  
Snow 0.00 in - - ()
Month to date snowfall 0.0  
Since 1 June snowfall 0.0  
Since 1 July snowfall 0.0  
Snow Depth -    
Sea Level Pressure  
Sea Level Pressure 30.03 in    
Wind  
Wind Speed 4 mph (SW)    
Max Wind Speed 13 mph    
Max Gust Speed 16 mph    
Visibility 6 miles    
Events Fog    
T = Trace of Precipitation, MM = Missing Value Source: NWS Daily Summary

Daily Weather History Graph

Daily Weather History Graph

Search for Another Location

Airport or City:

Trip Planner

Search our weather history database for the weather conditions in past years. The results will help you decide how hot, cold, wet, or windy it might be!

Date:

Astronomy

Jul. 23, 2013 Rise Set
Actual Time 6:02 AM PDT 8:43 PM PDT
Civil Twilight 5:30 AM PDT 9:15 PM PDT
Nautical Twilight 4:49 AM PDT 9:56 PM PDT
Astronomical Twilight 4:03 AM PDT 10:42 PM PDT
Moon 9:13 PM PDT (7/23) 7:20 AM PDT (7/23)
Length of Visible Light 15h 45m
Length of Day
14h 41m
Full, 98% of the Moon is Illuminated
Jul 23
Full
Jul 29
Last Quarter
Aug 6
New
Aug 14
First Quarter
Aug 20
Full

Hourly Weather History & Observations

Time (PDT) Temp. Dew Point Humidity Pressure Visibility Wind Dir Wind Speed Gust Speed Precip Events Conditions
12:56 AM 48.9 °F 48.9 °F 100% 30.01 in 0.2 mi South 3.5 mph - N/A Fog Fog
1:56 AM 48.9 °F 48.9 °F 100% 30.01 in 0.2 mi South 3.5 mph - N/A Fog Fog
2:56 AM 48.0 °F 48.0 °F 100% 30.01 in 0.5 mi Calm Calm - N/A Fog Fog
3:56 AM 46.9 °F 46.9 °F 100% 30.00 in 0.5 mi Calm Calm - N/A Fog Fog
4:25 AM 46.4 °F 46.4 °F 100% 30.00 in 1.0 mi Calm Calm - N/A   Mist
4:32 AM 48.2 °F 48.2 °F 100% 30.00 in 0.2 mi Calm Calm - N/A Fog Fog
4:56 AM 48.0 °F 48.0 °F 100% 30.00 in 0.5 mi Calm Calm - N/A Fog Fog
5:56 AM 48.0 °F 48.0 °F 100% 29.99 in 0.2 mi Calm Calm - N/A Fog Fog
6:56 AM 48.9 °F 48.9 °F 100% 30.01 in 0.2 mi Calm Calm - N/A Fog Fog
7:56 AM 48.9 °F 48.9 °F 100% 30.01 in 0.2 mi NNW 6.9 mph - N/A Fog Fog
8:56 AM 50.0 °F 50.0 °F 100% 30.01 in 0.2 mi North 5.8 mph - N/A Fog Fog
9:31 AM 51.8 °F 51.8 °F 100% 30.02 in 1.5 mi NW 3.5 mph - N/A   Overcast
9:33 AM 51.8 °F 51.8 °F 100% 30.02 in 3.0 mi Variable 3.5 mph - N/A   Overcast
9:56 AM 51.1 °F - N/A% 30.02 in 10.0 mi Calm Calm - N/A   Overcast
10:09 AM 51.8 °F 51.8 °F 100% 30.02 in 10.0 mi Variable 3.5 mph - N/A   Overcast
10:30 AM 53.6 °F 51.8 °F 94% 30.02 in 10.0 mi WNW 5.8 mph - N/A   Scattered Clouds
10:56 AM 53.1 °F 50.0 °F 89% 30.02 in 10.0 mi NW 5.8 mph - N/A   Mostly Cloudy
11:25 AM 55.4 °F 51.8 °F 88% 30.03 in 10.0 mi WNW 5.8 mph - N/A   Scattered Clouds
11:49 AM 53.6 °F 51.8 °F 94% 30.04 in 10.0 mi SSW 5.8 mph - N/A   Mostly Cloudy
11:56 AM 53.1 °F 50.0 °F 89% 30.04 in 10.0 mi SSW 4.6 mph - N/A   Mostly Cloudy
12:18 PM 51.8 °F 50.0 °F 94% 30.04 in 1.5 mi Variable 4.6 mph - N/A   Overcast
12:22 PM 51.8 °F 50.0 °F 94% 30.04 in 0.8 mi Variable 4.6 mph - N/A   Overcast
12:34 PM 51.8 °F 50.0 °F 94% 30.04 in 1.8 mi South 6.9 mph - N/A   Overcast
12:56 PM 52.0 °F 50.0 °F 93% 30.05 in 2.0 mi South 6.9 mph - N/A   Overcast
1:19 PM 51.8 °F 48.2 °F 88% 30.04 in 6.0 mi South 9.2 mph - N/A   Overcast
1:56 PM 53.1 °F 50.0 °F 89% 30.05 in 10.0 mi South 11.5 mph - N/A   Overcast
2:34 PM 53.6 °F 50.0 °F 88% 30.03 in 10.0 mi South 3.5 mph - N/A   Scattered Clouds
2:56 PM 52.0 °F 50.0 °F 93% 30.04 in 10.0 mi SSW 4.6 mph - N/A   Clear
3:56 PM 53.1 °F 48.9 °F 86% 30.04 in 10.0 mi South 8.1 mph - N/A   Clear
4:56 PM 51.1 °F 48.9 °F 92% 30.04 in 10.0 mi South 3.5 mph - N/A   Clear
5:40 PM 51.8 °F 48.2 °F 88% 30.05 in 10.0 mi SSW 9.2 mph - N/A   Mostly Cloudy
5:56 PM 51.1 °F 48.9 °F 92% 30.04 in 10.0 mi SSW 4.6 mph - N/A   Scattered Clouds
6:56 PM 52.0 °F 50.0 °F 93% 30.04 in 10.0 mi SSW 4.6 mph - N/A   Mostly Cloudy
7:56 PM 52.0 °F 50.0 °F 93% 30.05 in 10.0 mi SSW 3.5 mph - N/A   Clear
8:22 PM 51.8 °F 50.0 °F 94% 30.04 in 10.0 mi SSW 4.6 mph - N/A   Scattered Clouds
8:33 PM 51.8 °F 48.2 °F 88% 30.05 in 10.0 mi SSW 4.6 mph - N/A   Mostly Cloudy
8:45 PM 51.8 °F 48.2 °F 88% 30.04 in 10.0 mi Calm Calm - N/A   Scattered Clouds
8:56 PM 51.1 °F 48.9 °F 92% 30.04 in 10.0 mi SSE 5.8 mph - N/A   Partly Cloudy
9:56 PM 52.0 °F 50.0 °F 93% 30.04 in 10.0 mi NNW 4.6 mph - N/A   Clear
10:56 PM 52.0 °F 51.1 °F 97% 30.04 in 10.0 mi NW 3.5 mph - N/A   Clear
11:18 PM 53.6 °F 51.8 °F 94% 30.04 in 10.0 mi NW 4.6 mph - N/A   Partly Cloudy
11:56 PM 53.1 °F 52.0 °F 96% 30.04 in 10.0 mi NNW 5.8 mph - N/A   Clear